Flag Weather past 2 weeks in San Bernardino, California, U.S.A.

Now
72 °F

Sunny.


Feels Like: 75 °F
Forecast: 54 / 80 °F
Wind: 3 mph from Southwest

Location: Riverside Municipal Airport

Current Time: Nov 28, 2014 at 11:42:05 AM

Latest Report: Nov 28, 2014 at 10:53 AM


Visibility: 10 mi

Pressure: 29.96 "Hg

Humidity: 20%

Dew point: 29 °F

Location of San BernardinoLocation

Historic Weather in San Bernardino — Graph

°F

San Bernardino temperature yesterday

Maximum temperature yesterday: 90 °F (at 1:53 PM)
Minimum temperature yesterday: 54 °F (at 1:53 AM)
Average temperature yesterday: 69 °F

Past Weeks' High & Low Weather Summary

 TemperatureHumidityPressure
High90 °F (Nov 26, 2:53 PM)93% (Nov 21, 2:53 AM)30.38 "Hg (Nov 21, 2:53 AM)
Low44 °F (Nov 25, 6:53 AM)4% (Nov 16, 11:53 AM)29.89 "Hg (Nov 21, 1:53 PM)
Average62 °F41%30.08 "Hg
* Reported Nov 13 9:53 AM — Nov 28 9:53 AM, San Bernardino, Weather by CustomWeather, © 2014

Note: Actual official high and low records may vary slightly from our data, if they occured in-between our weather recording intervals... More about our weather records

Advertising

San Bernardino weather history for previous 24 hours

 ConditionsComfort  
Time TempWeatherWind HumidityBarometerVisibility
9:53 AM
Nov 28
69 °FSunny.No wind21%29.98 "Hg10 mi
8:53 AM64 °FSunny.No wind25%29.98 "Hg10 mi
7:53 AM56 °FSunny.5 mph34%29.98 "Hg10 mi
6:53 AM52 °FSunny.5 mph38%29.98 "Hg10 mi
5:53 AM53 °FClear.5 mph35%29.97 "Hg10 mi
4:53 AM50 °FClear.3 mph44%29.97 "Hg10 mi
3:53 AM53 °FClear.3 mph35%29.96 "Hg10 mi
2:53 AM55 °FClear.6 mph34%29.97 "Hg10 mi
1:53 AM57 °FClear.5 mph31%29.97 "Hg10 mi
12:53 AM57 °FClear.6 mph33%29.98 "Hg10 mi
11:53 PM
Nov 27
59 °FClear.6 mph29%29.99 "Hg10 mi
10:53 PM60 °FClear.6 mph30%30.00 "Hg10 mi
9:53 PM61 °FClear.5 mph29%30.01 "Hg10 mi
8:53 PM63 °FClear.6 mph28%30.01 "Hg10 mi
7:53 PM67 °FClear.No wind20%30.01 "Hg10 mi
6:53 PM70 °FClear.No wind20%30.00 "Hg10 mi
5:53 PM75 °FClear.5 mph16%29.99 "Hg10 mi
4:53 PM79 °FClear.No wind14%29.98 "Hg10 mi
3:53 PM86 °FSunny.5 mph9%29.97 "Hg10 mi
2:53 PM89 °FSunny.6 mph6%29.97 "Hg10 mi
1:53 PM90 °FSunny.No wind6%29.98 "Hg10 mi
12:53 PM89 °FSunny.5 mph6%30.00 "Hg10 mi
11:53 AM86 °FSunny.No wind8%30.03 "Hg10 mi
Weather by CustomWeather, © 2014

See weather overviewHow to use our weather pages